Вернуться в каталог

GLOBALSTAR M094

АктивенСвязьLEO
NORAD 39074·PAYLOAD·🇺🇸 United States

Запущен Feb 6, 2013 с Baikonur Cosmodrome

Loading…

Ближайшие Пролёты (ближайшие 24 часа)

TLE

СвежийSource: Space-Track

Эпоха: Sep 14, 2026, 09:02 UTC

1 39074U 13005C   26257.37651053 -.00000114  00000-0 -57600-4 0  9994
2 39074  51.9938 239.2454 0000316 107.9842 252.1059 12.62264790629730

Отслеживайте GLOBALSTAR M094 в реальном времени с AllMySat

Download on the App Store